M0ZPG Weather Reports


Display with metric or nautical units.
time (UTC)temp
F
wind
direction
speed
MPH
gust
MPH
rain 1hr
in
rain 24hr
in
rain mn
in
humidity
%
barometer
mb
20260903201808 70 215 2.0 7.0 0.00 0.00 0.00 83 1015.3
20260903200903 70 210 3.0 10.0 0.00 0.00 0.00 83 1015.4
20260903200003 70 244 2.0 7.0 0.00 0.00 0.00 83 1015.3
20260903195403 70 228 2.0 7.0 0.00 0.00 0.00 82 1015.3
20260903194505 70 187 2.0 5.0 0.00 0.00 0.00 82 1015.4
20260903193604 70 165 2.0 9.0 0.00 0.00 0.00 81 1015.4
20260903192703 71 189 2.0 8.0 0.00 0.00 0.00 80 1015.5
20260903191806 71 224 2.0 10.0 0.00 0.00 0.00 79 1015.5
20260903190903 72 212 2.0 7.0 0.00 0.00 0.00 78 1015.5
20260903190005 72 200 2.0 9.0 0.00 0.00 0.00 78 1015.5
20260903185404 72 178 2.0 7.0 0.00 0.00 0.00 77 1015.4
20260903184505 73 206 3.0 9.0 0.00 0.00 0.00 77 1015.4
20260903183605 73 235 3.0 12.0 0.00 0.00 0.00 76 1015.3
20260903182704 73 211 3.0 12.0 0.00 0.00 0.00 76 1015.3
20260903181803 74 219 3.0 11.0 0.00 0.00 0.00 75 1015.3
20260903180008 74 216 3.0 8.0 0.00 0.00 0.00 74 1015.5
20260903175405 74 226 3.0 9.0 0.00 0.00 0.00 74 1015.5
20260903174504 75 198 2.0 9.0 0.00 0.00 0.00 73 1015.6
20260903173605 75 242 2.0 10.0 0.00 0.00 0.00 73 1015.6
20260903172703 76 204 4.0 15.0 0.00 0.00 0.00 72 1015.5
20260903171806 76 237 3.0 11.0 0.00 0.00 0.00 72 1015.4
20260903170904 76 166 3.0 8.0 0.00 0.00 0.00 72 1015.4
20260903170004 76 225 3.0 11.0 0.00 0.00 0.00 71 1015.6
20260903165403 76 218 3.0 12.0 0.00 0.00 0.00 71 1015.5
20260903164505 77 216 2.0 8.0 0.00 0.00 0.00 70 1015.4
20260903163603 77 225 3.0 10.0 0.00 0.00 0.00 70 1015.5
20260903162704 77 167 3.0 7.0 0.00 0.00 0.00 70 1015.4
20260903161803 77 218 3.0 14.0 0.00 0.00 0.00 69 1015.5
20260903160905 78 191 3.0 7.0 0.00 0.00 0.00 69 1015.4
20260903160003 78 233 3.0 12.0 0.00 0.00 0.00 68 1015.4
20260903155406 79 226 2.0 12.0 0.00 0.00 0.00 66 1015.6
20260903154505 78 228 3.0 8.0 0.00 0.00 0.00 67 1015.8
20260903153606 78 233 3.0 14.0 0.00 0.00 0.00 67 1015.8
20260903152705 79 245 2.0 6.0 0.00 0.00 0.00 67 1015.8
20260903151806 78 217 2.0 9.0 0.00 0.00 0.00 66 1015.9
20260903150905 78 185 2.0 8.0 0.00 0.00 0.00 69 1016.0
20260903150005 78 236 2.0 8.0 0.00 0.00 0.00 67 1016.0
20260903145403 78 231 3.0 9.0 0.00 0.00 0.00 65 1016.2
20260903144504 78 240 3.0 11.0 0.00 0.00 0.00 64 1015.9
20260903143605 79 246 3.0 11.0 0.00 0.00 0.00 63 1016.1
20260903142915 80 252 3.0 8.0 0.00 0.00 0.00 62 1016.2
20260903142017 80 242 3.0 8.0 0.00 0.00 0.00 60 1016.2
20260903140906 80 241 3.0 12.0 0.00 0.00 0.00 59 1016.2
20260903140003 80 255 2.0 12.0 0.00 0.00 0.00 59 1016.4
20260903135405 79 254 3.0 9.0 0.00 0.00 0.00 60 1016.5
20260903134503 80 253 3.0 8.0 0.00 0.00 0.00 59 1016.7
20260903133813 80 254 2.0 8.0 0.00 0.00 0.00 59 1016.6
20260903132916 80 243 2.0 13.0 0.00 0.00 0.00 61 1016.8
20260903131805 79 250 2.0 8.0 0.00 0.00 0.00 62 1016.8
20260903130906 79 251 3.0 8.0 0.00 0.00 0.00 62 1016.7
20260903130005 78 258 3.0 8.0 0.00 0.00 0.00 63 1016.6
20260903125403 77 252 3.0 11.0 0.00 0.00 0.00 66 1016.7
20260903124503 77 248 2.0 8.0 0.00 0.00 0.00 65 1016.9
20260903123819 77 255 2.0 8.0 0.00 0.00 0.00 64 1016.8
20260903122703 77 249 2.0 10.0 0.00 0.00 0.00 64 1016.9
20260903122019 78 303 1.0 5.0 0.00 0.00 0.00 63 1016.9
20260903120903 77 254 2.0 8.0 0.00 0.00 0.00 63 1016.8
20260903120004 77 259 2.0 6.0 0.00 0.00 0.00 65 1016.7
20260903115403 77 236 2.0 7.0 0.00 0.00 0.00 66 1016.8
20260903113814 76 244 2.0 7.0 0.00 0.00 0.00 68 1016.9
20260903112705 75 250 2.0 7.0 0.00 0.00 0.00 69 1016.9
20260903111805 75 230 2.0 9.0 0.00 0.00 0.00 70 1017.0
20260903110905 75 221 2.0 8.0 0.00 0.00 0.00 70 1017.0
20260903110005 75 256 1.0 5.0 0.00 0.00 0.00 73 1017.0
20260903105403 74 255 2.0 5.0 0.00 0.00 0.00 72 1017.2
20260903104505 74 260 2.0 7.0 0.00 0.00 0.00 72 1017.2
20260903103603 74 253 2.0 7.0 0.00 0.00 0.00 71 1017.2
20260903102703 74 253 1.0 4.0 0.00 0.00 0.00 72 1017.2
20260903102015 73 251 1.0 8.0 0.00 0.00 0.00 73 1017.3
20260903100903 72 245 2.0 7.0 0.00 0.00 0.00 74 1017.1
20260903100017 71 256 1.0 4.0 0.00 0.00 0.00 77 1017.1
20260903095403 71 255 1.0 7.0 0.00 0.00 0.00 77 1017.3
20260903094505 70 255 1.0 7.0 0.00 0.00 0.00 77 1017.4
20260903093605 70 275 1.0 5.0 0.00 0.00 0.00 78 1017.4
20260903092705 70 250 1.0 5.0 0.00 0.00 0.00 78 1017.3
20260903091803 70 268 1.0 6.0 0.00 0.00 0.00 78 1017.4
20260903091113 70 250 1.0 5.0 0.00 0.00 0.00 78 1017.4
20260903090006 70 277 2.0 8.0 0.00 0.00 0.00 79 1017.1
20260903085403 70 262 2.0 7.0 0.00 0.00 0.00 80 1017.1
20260903084506 70 243 2.0 7.0 0.00 0.00 0.00 80 1017.0
20260903083605 69 248 1.0 7.0 0.00 0.00 0.00 81 1016.9
20260903082703 69 229 3.0 9.0 0.00 0.00 0.00 81 1016.6
20260903081805 69 253 2.0 12.0 0.00 0.00 0.00 82 1016.4
20260903080903 68 242 2.0 8.0 0.00 0.00 0.00 83 1016.2
20260903080005 68 235 3.0 9.0 0.00 0.00 0.00 83 1016.1
20260903075405 68 250 2.0 8.0 0.00 0.00 0.00 83 1016.1
20260903074505 68 243 2.0 8.0 0.00 0.00 0.00 84 1016.0
20260903073603 68 228 2.0 8.0 0.00 0.00 0.00 85 1016.0
20260903072705 67 238 2.0 11.0 0.00 0.00 0.00 85 1015.7
20260903071803 67 221 2.0 7.0 0.00 0.00 0.00 85 1015.4
20260903070905 67 196 1.0 7.0 0.00 0.00 0.00 86 1015.9
20260903070003 67 190 1.0 4.0 0.00 0.00 0.00 86 1016.1
20260903065405 67 227 1.0 4.0 0.00 0.00 0.00 86 1016.1
20260903064505 67 229 1.0 7.0 0.00 0.00 0.00 86 1016.0
20260903063603 67 227 1.0 4.0 0.00 0.00 0.00 86 1016.2
20260903062703 66 242 1.0 7.0 0.00 0.00 0.00 87 1016.1
20260903062018 66 234 1.0 7.0 0.00 0.00 0.00 87 1016.0
20260903060903 66 220 1.0 6.0 0.00 0.00 0.00 87 1015.9
20260903060003 66 248 1.0 6.0 0.00 0.00 0.00 87 1015.9
20260903055405 66 250 1.0 6.0 0.00 0.00 0.00 87 1015.8
20260903054506 66 237 2.0 7.0 0.00 0.00 0.00 88 1015.8
20260903053605 66 211 2.0 6.0 0.00 0.00 0.00 88 1015.7
20260903052703 66 203 2.0 5.0 0.00 0.00 0.00 88 1015.6
20260903051803 66 190 1.0 6.0 0.00 0.00 0.00 88 1015.6
20260903050903 66 214 1.0 5.0 0.00 0.00 0.00 88 1015.6
20260903050006 66 221 2.0 9.0 0.00 0.00 0.00 88 1015.6
20260903045405 66 222 1.0 5.0 0.00 0.00 0.00 88 1015.6
20260903044506 66 228 1.0 5.0 0.00 0.00 0.00 88 1015.4
20260903043605 66 209 1.0 7.0 0.00 0.00 0.00 88 1015.4
20260903042916 66 229 2.0 7.0 0.00 0.00 0.00 88 1015.5
20260903041805 66 170 1.0 5.0 0.00 0.00 0.00 88 1015.5
20260903040903 66 241 1.0 6.0 0.00 0.00 0.00 88 1015.4
20260903040003 66 243 2.0 9.0 0.00 0.00 0.00 88 1015.8
20260903035406 66 232 2.0 8.0 0.00 0.00 0.00 88 1015.9
20260903034503 66 233 1.0 7.0 0.00 0.00 0.00 88 1015.7
20260903033605 66 175 1.0 5.0 0.00 0.00 0.00 87 1015.5
20260903032703 66 212 1.0 9.0 0.00 0.00 0.00 87 1015.4
20260903032014 66 240 2.0 9.0 0.00 0.00 0.00 87 1015.5
20260903030905 66 199 2.0 8.0 0.00 0.00 0.00 87 1015.6
20260903030005 66 235 2.0 7.0 0.00 0.00 0.00 87 1015.5
20260903025403 66 242 2.0 9.0 0.00 0.00 0.00 87 1015.4
20260903024503 66 200 2.0 6.0 0.00 0.00 0.00 87 1015.6
20260903023815 66 205 2.0 5.0 0.00 0.00 0.00 87 1015.7
20260903022705 66 174 1.0 8.0 0.00 0.00 0.00 87 1015.5
20260903021805 66 207 2.0 7.0 0.00 0.00 0.00 87 1015.6
20260903020905 66 217 1.0 7.0 0.00 0.00 0.00 87 1015.5
20260903020215 66 157 1.0 7.0 0.00 0.00 0.00 87 1015.7
20260903015626 66 178 2.0 8.0 0.00 0.00 0.00 87 1015.6
20260903014503 66 222 1.0 5.0 0.00 0.00 0.00 87 1015.7
20260903013603 66 213 1.0 5.0 0.00 0.00 0.00 87 1015.7
20260903012706 66 213 1.0 7.0 0.00 0.00 0.00 87 1015.9
20260903011803 66 223 1.0 7.0 0.00 0.00 0.00 87 1015.9
20260903010905 66 241 2.0 8.0 0.00 0.00 0.00 87 1015.8
20260903010003 66 213 2.0 7.0 0.00 0.00 0.00 87 1015.9
20260903005403 66 229 1.0 7.0 0.00 0.00 0.00 87 1016.1
20260903004505 66 225 2.0 11.0 0.00 0.00 0.00 87 1016.3
20260903003604 66 253 1.0 11.0 0.00 0.00 0.00 87 1016.2
20260903002704 66 196 1.0 7.0 0.00 0.00 0.00 87 1016.2
20260903001805 66 240 1.0 6.0 0.00 0.00 0.00 87 1016.1
20260903000903 66 234 1.0 7.0 0.00 0.00 0.00 87 1016.2
20260903000003 66 249 2.0 6.0 0.00 0.00 0.00 87 1016.4
20260902235403 66 228 2.0 6.0 0.00 0.00 0.00 87 1016.1
20260902234503 66 246 2.0 7.0 0.00 0.00 0.00 87 1016.1
20260902233817 66 229 2.0 7.0 0.00 0.00 0.00 87 1016.1
20260902232705 66 225 2.0 9.0 0.00 0.00 0.00 87 1016.4
20260902231803 66 216 1.0 9.0 0.00 0.00 0.00 87 1016.4
20260902230905 66 213 1.0 4.0 0.00 0.00 0.00 87 1016.4
20260902230005 66 205 1.0 4.0 0.00 0.00 0.00 87 1016.5
20260902225405 66 233 2.0 8.0 0.00 0.00 0.00 87 1016.7
20260902224504 66 187 1.0 8.0 0.00 0.00 0.00 88 1016.6
20260902223606 66 214 1.0 7.0 0.00 0.00 0.00 87 1016.7
20260902222703 66 184 1.0 8.0 0.00 0.00 0.00 87 1016.6
20260902222012 66 221 2.0 8.0 0.00 0.00 0.00 87 1016.4
20260902220903 66 232 2.0 8.0 0.00 0.00 0.00 87 1016.4
20260902220003 66 238 2.0 8.0 0.00 0.00 0.00 87 1016.2
20260902215408 66 231 2.0 9.0 0.00 0.00 0.00 87 1016.2
20260902214503 66 237 2.0 9.0 0.00 0.00 0.00 87 1016.2
20260902213605 66 228 2.0 10.0 0.00 0.00 0.00 87 1016.3
20260902212916 67 214 2.0 6.0 0.00 0.00 0.00 87 1016.2
20260902211806 67 203 1.0 7.0 0.00 0.00 0.00 87 1016.3
20260902211115 67 233 1.0 9.0 0.00 0.00 0.00 87 1016.3
20260902210003 67 236 2.0 7.0 0.00 0.00 0.00 87 1016.3
20260902205403 67 223 2.0 9.0 0.00 0.00 0.00 87 1016.3
20260902204717 67 231 2.0 7.0 0.00 0.00 0.00 87 1016.3
20260902203605 67 230 2.0 8.0 0.00 0.00 0.00 87 1016.2